Rexburg, ID

9:42 AM MDT on May 22, 2017 (GMT -0600)
Rexburg-Madison County

Weather History for KRXE - October, 2012

Change the Weather History Date:

Saturday, October 27, 2012

  Actual Average Record
Temperature  
Mean Temperature 31 °F 41 °F  
Max Temperature 36 °F 53 °F 68 °F (2001)
Min Temperature 25 °F 28 °F 20 °F (2002)
Degree Days  
Heating Degree Days 34 24  
Month to date heating degree days 561 526  
Since 1 July heating degree days 737 884  
Cooling Degree Days 0 0  
Month to date cooling degree days 0 0  
Year to date cooling degree days 419 208  
Moisture  
Dew Point 28 °F    
Average Humidity 91    
Maximum Humidity 100    
Minimum Humidity 82    
Precipitation  
Precipitation T in 0.03 in 0.61 in (2005)
Month to date precipitation 1.40 0.96  
Year to date precipitation 8.04 10.84  
Sea Level Pressure  
Sea Level Pressure 30.17 in    
Wind  
Wind Speed 2 mph (NE)    
Max Wind Speed 10 mph    
Max Gust Speed 13 mph    
Visibility 6 miles    
Events Fog , Snow    
T = Trace of Precipitation, MM = Missing Value Source: NWS Daily Summary

Daily Weather History Graph

Daily Weather History Graph

Search for Another Location

Airport or City:

Trip Planner

Search our weather history database for the weather conditions in past years. The results will help you decide how hot, cold, wet, or windy it might be!

Date:

Astronomy

Oct. 27, 2012 Rise Set
Actual Time 7:57 AM MDT 6:23 PM MDT
Civil Twilight 7:27 AM MDT 6:53 PM MDT
Nautical Twilight 6:54 AM MDT 7:27 PM MDT
Astronomical Twilight 6:20 AM MDT 8:00 PM MDT
Moon 5:13 PM MDT (10/27) 5:53 AM MDT (10/27)
Length of Visible Light 11h 25m
Length of Day
10h 26m
Waxing Gibbous, 96% of the Moon is Illuminated
Oct 27
Waxing Gibbous
Oct 29
Full
Nov 6
Last Quarter
Nov 13
New
Nov 20
First Quarter

Hourly Weather History & Observations

Time (MDT) Temp. Windchill Dew Point Humidity Pressure Visibility Wind Dir Wind Speed Gust Speed Precip Events Conditions
12:29 AM 30.2 °F 25.4 °F 28.4 °F 93% 30.14 in 10.0 mi SW 4.6 mph - N/A   Overcast
12:53 AM 30.0 °F - 28.9 °F 96% 30.23 in 10.0 mi Calm Calm - N/A   Overcast
1:53 AM 28.9 °F - 28.9 °F 100% 30.23 in 7.0 mi Calm Calm - N/A   Overcast
2:53 AM 28.9 °F - 28.0 °F 96% 30.22 in 4.0 mi Calm Calm - N/A   Overcast
3:01 AM 28.4 °F - 28.4 °F 100% 30.14 in 4.0 mi Calm Calm - N/A   Overcast
3:17 AM 28.4 °F - 28.4 °F 100% 30.13 in 2.5 mi Calm Calm - N/A   Overcast
3:24 AM 30.2 °F - 28.4 °F 93% 30.13 in 4.0 mi Calm Calm - N/A   Overcast
3:53 AM 28.9 °F - 28.0 °F 96% 30.21 in 4.0 mi Calm Calm - N/A   Overcast
4:28 AM 28.4 °F - 28.4 °F 100% 30.12 in 5.0 mi Calm Calm - N/A   Overcast
4:53 AM 28.9 °F - 28.0 °F 96% 30.21 in 4.0 mi Calm Calm - N/A   Overcast
5:15 AM 28.4 °F - 28.4 °F 100% 30.13 in 2.0 mi Calm Calm - N/A   Overcast
5:34 AM 28.4 °F - 28.4 °F 100% 30.12 in 1.5 mi Calm Calm - N/A   Overcast
5:43 AM 28.4 °F 24.6 °F 28.4 °F 100% 30.13 in 0.2 mi NNE 3.5 mph - N/A Fog Light Freezing Fog
5:53 AM 28.0 °F - 28.0 °F 100% 30.21 in 0.2 mi Calm Calm - N/A Fog Light Freezing Fog
6:44 AM 28.4 °F - 28.4 °F 100% 30.13 in 0.8 mi Calm Calm - N/A   Mist
6:51 AM 28.4 °F - 28.4 °F 100% 30.13 in 1.2 mi Calm Calm - N/A   Overcast
6:53 AM 28.0 °F - 28.0 °F 100% 30.22 in 1.2 mi Calm Calm - N/A   Overcast
6:57 AM 28.4 °F 24.6 °F 28.4 °F 100% 30.13 in 0.8 mi ENE 3.5 mph - N/A   Mist
7:14 AM 28.4 °F - 26.6 °F 93% 30.13 in 0.8 mi Calm Calm - N/A   Mist
7:26 AM 26.6 °F 22.6 °F 26.6 °F 100% 30.13 in 0.8 mi ENE 3.5 mph - N/A   Mist
7:42 AM 26.6 °F - 26.6 °F 100% 30.13 in 1.8 mi Calm Calm - N/A   Overcast
7:47 AM 26.6 °F - 26.6 °F 100% 30.13 in 3.0 mi Calm Calm - N/A   Mostly Cloudy
7:53 AM 26.1 °F - 26.1 °F 100% 30.23 in 5.0 mi Calm Calm - N/A   Mostly Cloudy
8:03 AM 26.6 °F - 26.6 °F 100% 30.13 in 4.0 mi Calm Calm - N/A   Scattered Clouds
8:53 AM 25.0 °F - 25.0 °F 100% 30.24 in 5.0 mi Calm Calm - N/A   Partly Cloudy
9:53 AM 25.0 °F - 25.0 °F 100% 30.25 in 5.0 mi Calm Calm - N/A   Clear
10:49 AM 24.8 °F 19.1 °F 24.8 °F 100% 30.16 in 6.0 mi NE 4.6 mph - N/A   Partly Cloudy
10:53 AM 25.0 °F 19.3 °F 24.1 °F 96% 30.25 in 6.0 mi NE 4.6 mph - N/A   Scattered Clouds
11:16 AM 26.6 °F 22.6 °F 23.0 °F 86% 30.16 in 6.0 mi ENE 3.5 mph - N/A   Mostly Cloudy
11:27 AM 26.6 °F - 24.8 °F 93% 30.16 in 8.0 mi Calm Calm - N/A   Partly Cloudy
12:53 PM 32.0 °F - 28.0 °F 85% 30.23 in 10.0 mi Calm Calm - N/A   Partly Cloudy
1:53 PM 32.0 °F 28.7 °F 28.0 °F 85% 30.22 in 8.0 mi WSW 3.5 mph - N/A   Mostly Cloudy
2:53 PM 33.1 °F 28.7 °F 28.9 °F 85% 30.21 in 10.0 mi WSW 4.6 mph - N/A   Overcast
3:53 PM 34.0 °F 31.0 °F 28.0 °F 79% 30.20 in 10.0 mi WSW 3.5 mph - N/A   Overcast
4:53 PM 34.0 °F - 28.0 °F 79% 30.21 in 10.0 mi Calm Calm - N/A   Overcast
5:53 PM 34.0 °F 29.8 °F 28.0 °F 79% 30.20 in 9.0 mi ENE 4.6 mph - 0.00 in Snow Light Snow
6:07 PM 33.8 °F 30.8 °F 28.4 °F 81% 30.12 in 10.0 mi East 3.5 mph - 0.00 in   Overcast
6:30 PM 33.8 °F 29.6 °F 28.4 °F 81% 30.11 in 10.0 mi NNE 4.6 mph - 0.00 in   Overcast
6:53 PM 33.1 °F 27.7 °F 28.9 °F 85% 30.18 in 10.0 mi NNE 5.8 mph - 0.00 in   Overcast
7:53 PM 33.1 °F 26.9 °F 30.0 °F 89% 30.19 in 10.0 mi NE 6.9 mph - N/A   Overcast
8:53 PM 33.1 °F 30.0 °F 30.9 °F 92% 30.19 in 9.0 mi NE 3.5 mph - N/A   Overcast
10:53 PM 34.0 °F 31.0 °F 32.0 °F 92% 30.18 in 10.0 mi NNW 3.5 mph - N/A   Overcast
11:53 PM 35.1 °F - 30.9 °F 85% 30.18 in 10.0 mi Calm Calm - N/A   Overcast